Weather in Urshelskiy

Russia / Vladimir Oblast     55°40′35″N   40°12′49″E
temp.,
°C
wind,
m/s
gust,
m/s
humid.,
%
clouds,
%
prec.,
mm/h
press.,
hPa
HPBL,
m
4 march, thu
thu400:00−1w41093100 0.1 1006734
03:00−1wsw61394100 0.3 1003713
06:00+1wsw71597100 0.9 9991139
09:00+1w71397100 1.5 9981053
12:000wnw61199100 0.8 998784
15:000wnw3782100 1.1 9981220
18:00−3nnw2488100 0.0 99989
21:00−6nnw2291100 0.0 100021
5 march, fri
fri500:00−9nnw229699 0.0 100125
03:00−9nw229799 0.1 100330
06:00−10w229788 0.1 100524
09:00−8w249580 0.1 1006178
12:00−4w368989 0.1 1007675
15:00−3wnw468195 0.9 1008951
18:00−6wnw238897 0.6 101073
21:00−10wnw239267 0.6 101329
6 march, sat
sat600:00−13n229530 0.0 101520
03:00−15nne118714 0.0 101620
06:00−16se11840 0.0 101620
09:00−12sse118514 0.0 101650
12:00−7nne118686 0.0 1016401
15:00−7n228793 0.2 1015465
18:00−10n229499 0.1 101522
21:00−14wnw129360 0.1 101620
7 march, sun
sun700:00−14sw23910 0.0 101438
03:00−13ssw410900 0.0 1011256
06:00−11ssw5138970 0.0 1007483
09:00−7sw7149085 0.2 1003847
12:00−5sw81493100 1.0 9981211
15:00−3sw71394100 3.1 9951093
18:00−5wnw51280100 1.6 9951249
21:00−11wsw3108270 1.6 998228
8 march, mon
mon800:00−10sw4138328 0.0 998403
03:00−9sw4128563 0.0 997529
06:00−10ssw4119199 0.0 994453
09:00−7wsw4995100 1.0 994735
12:00−7w4684100 0.4 996918
15:00−7wnw71086100 0.6 10001001
18:00−9wnw51285100 0.3 1003836
21:00−12wnw3119373 0.3 1007355